New Castle, PA

9:12 PM EDT on April 24, 2018 (GMT -0400)
New Castle Municipal

Weather History for KUCP - October, 2012

Change the Weather History Date:

Monday, October 8, 2012

  Actual Average Record
Temperature  
Mean Temperature 39 °F -  
Max Temperature 48 °F 65 °F 89 °F (1939)
Min Temperature 30 °F 41 °F 29 °F (1953)
Degree Days  
Heating Degree Days 26    
Moisture  
Dew Point 34 °F    
Average Humidity 95    
Maximum Humidity 100    
Minimum Humidity 56    
Precipitation  
Precipitation 0.01 in - - ()
Sea Level Pressure  
Sea Level Pressure 30.26 in    
Wind  
Wind Speed 1 mph (North)    
Max Wind Speed 7 mph    
Max Gust Speed -    
Visibility 3 miles    
Events Fog    
Averages and records for this station are not official NWS values.
T = Trace of Precipitation, MM = Missing Value Source: NWS Daily Summary

Daily Weather History Graph

Daily Weather History Graph

Search for Another Location

Airport or City:

Astronomy

Oct. 08, 2012 Rise Set
Actual Time 7:26 AM EDT 6:51 PM EDT
Civil Twilight 6:58 AM EDT 7:18 PM EDT
Nautical Twilight 6:26 AM EDT 7:50 PM EDT
Astronomical Twilight 5:54 AM EDT 8:22 PM EDT
Moon 12:01 AM EDT (10/8) 2:42 PM EDT (10/8)
Length of Visible Light 12h 20m
Length of Day
11h 25m
Waning Gibbous, 46% of the Moon is Illuminated
Oct 8
Waning Gibbous
Oct 15
New
Oct 21
First Quarter
Oct 29
Full
Nov 6
Last Quarter

Hourly Weather History & Observations

Time (EDT) Temp. Windchill Dew Point Humidity Pressure Visibility Wind Dir Wind Speed Gust Speed Precip Events Conditions
12:07 AM 32.0 °F - 32.0 °F 100% 30.17 in 0.2 mi Calm Calm - N/A Fog Fog
12:22 AM 32.0 °F - 32.0 °F 100% 30.18 in 0.8 mi Calm Calm - N/A   Clear
12:30 AM 32.0 °F - 32.0 °F 100% 30.18 in 1.0 mi Calm Calm - N/A   Clear
12:36 AM 32.0 °F - 32.0 °F 100% 30.18 in 1.5 mi Calm Calm - N/A   Clear
12:43 AM 32.0 °F - 32.0 °F 100% 30.18 in 3.0 mi Calm Calm - N/A   Clear
12:56 AM 32.0 °F - 32.0 °F 100% 30.25 in 7.0 mi Calm Calm - N/A   Clear
1:18 AM 32.0 °F - 32.0 °F 100% 30.18 in 1.8 mi Calm Calm - N/A   Clear
1:22 AM 32.0 °F - 30.2 °F 93% 30.18 in 1.0 mi Calm Calm - N/A   Clear
1:28 AM 32.0 °F - 30.2 °F 93% 30.18 in 1.5 mi Calm Calm - N/A   Clear
1:41 AM 30.2 °F - 30.2 °F 100% 30.18 in 3.0 mi Calm Calm - N/A   Clear
1:56 AM 32.0 °F - 32.0 °F 100% 30.26 in 5.0 mi Calm Calm - N/A   Clear
2:56 AM 31.1 °F - 30.0 °F 96% 30.27 in 8.0 mi Calm Calm - N/A   Clear
3:56 AM 32.9 °F - 32.9 °F 100% 30.27 in 5.0 mi Calm Calm - N/A   Clear
4:56 AM 32.9 °F - 32.9 °F 100% 30.29 in 2.5 mi Calm Calm - N/A   Partly Cloudy
5:04 AM 33.8 °F - 33.8 °F 100% 30.22 in 1.2 mi Calm Calm - N/A   Mostly Cloudy
5:12 AM 33.8 °F - 33.8 °F 100% 30.22 in 0.8 mi Calm Calm - N/A   Mostly Cloudy
5:34 AM 33.8 °F - 33.8 °F 100% 30.21 in 0.5 mi Calm Calm - N/A Fog Fog
5:43 AM 33.8 °F - 32.0 °F 93% 30.22 in 0.2 mi Calm Calm - N/A Fog Fog
5:56 AM 32.9 °F - 32.0 °F 96% 30.30 in 0.2 mi Calm Calm - N/A Fog Fog
6:32 AM 33.8 °F 30.8 °F 33.8 °F 100% 30.23 in 0.8 mi Variable 3.5 mph - N/A   Overcast
6:42 AM 33.8 °F - 33.8 °F 100% 30.23 in 1.2 mi Calm Calm - N/A   Overcast
6:56 AM 32.9 °F - 32.9 °F 100% 30.32 in 1.0 mi Calm Calm - N/A   Overcast
7:04 AM 33.8 °F - 33.8 °F 100% 30.24 in 0.8 mi Calm Calm - N/A   Overcast
7:12 AM 33.8 °F - 33.8 °F 100% 30.25 in 0.5 mi Calm Calm - N/A Fog Fog
7:23 AM 33.8 °F - 33.8 °F 100% 30.25 in 1.0 mi Calm Calm - N/A   Overcast
7:31 AM 33.8 °F - 33.8 °F 100% 30.25 in 1.2 mi Calm Calm - N/A   Mostly Cloudy
7:35 AM 33.8 °F - 33.8 °F 100% 30.25 in 0.8 mi Calm Calm - N/A   Mostly Cloudy
7:41 AM 33.8 °F - 33.8 °F 100% 30.24 in 1.2 mi Calm Calm - N/A   Mostly Cloudy
7:44 AM 33.8 °F - 33.8 °F 100% 30.24 in 2.0 mi Calm Calm - N/A   Mostly Cloudy
7:56 AM 32.9 °F - 32.9 °F 100% 30.32 in 4.0 mi Calm Calm - N/A   Mostly Cloudy
8:20 AM 33.8 °F - 33.8 °F 100% 30.25 in 2.5 mi Calm Calm - N/A   Mostly Cloudy
8:29 AM 33.8 °F - 33.8 °F 100% 30.25 in 3.0 mi Calm Calm - N/A   Overcast
8:37 AM 35.6 °F - 33.8 °F 93% 30.25 in 1.8 mi Calm Calm - 0.01 in   Overcast
8:41 AM 35.6 °F - 33.8 °F 93% 30.25 in 1.0 mi Calm Calm - 0.01 in   Overcast
8:56 AM 34.9 °F - 34.9 °F 100% 30.32 in 1.5 mi Calm Calm - 0.01 in   Overcast
9:24 AM 35.6 °F - 35.6 °F 100% 30.25 in 1.0 mi Calm Calm - N/A   Overcast
9:35 AM 35.6 °F - 35.6 °F 100% 30.25 in 0.5 mi Calm Calm - N/A Fog Fog
9:56 AM 36.9 °F 34.3 °F 36.0 °F 97% 30.34 in 0.5 mi Variable 3.5 mph - N/A Fog Fog
10:11 AM 37.4 °F - 37.4 °F 100% 30.26 in 0.2 mi Calm Calm - N/A Fog Fog
10:20 AM 37.4 °F - 37.4 °F 100% 30.27 in 0.5 mi Calm Calm - N/A Fog Fog
10:27 AM 37.4 °F 33.8 °F 37.4 °F 100% 30.27 in 1.0 mi Variable 4.6 mph - N/A   Overcast
10:30 AM 37.4 °F 34.9 °F 37.4 °F 100% 30.27 in 1.8 mi Variable 3.5 mph - N/A   Overcast
10:32 AM 39.2 °F 37.0 °F 39.2 °F 100% 30.27 in 3.0 mi Variable 3.5 mph - N/A   Overcast
10:56 AM 39.9 °F - 39.9 °F 100% 30.35 in 8.0 mi Calm Calm - N/A   Mostly Cloudy
11:09 AM 39.2 °F 35.9 °F 39.2 °F 100% 30.27 in 9.0 mi Variable 4.6 mph - N/A   Mostly Cloudy
11:16 AM 41.0 °F - 41.0 °F 100% 30.27 in 10.0 mi Calm Calm - N/A   Scattered Clouds
11:56 AM 43.0 °F 41.3 °F 39.9 °F 89% 30.34 in 10.0 mi Variable 3.5 mph - N/A   Partly Cloudy
12:56 PM 45.9 °F 42.9 °F 36.9 °F 71% 30.33 in 10.0 mi Variable 5.8 mph - N/A   Partly Cloudy
1:56 PM 46.9 °F - 36.9 °F 68% 30.31 in 10.0 mi Variable 4.6 mph - N/A   Scattered Clouds
2:56 PM 47.8 °F - 36.0 °F 63% 30.30 in 10.0 mi SSW 6.9 mph - N/A   Mostly Cloudy
4:56 PM 48.9 °F - 34.0 °F 56% 30.28 in 10.0 mi Variable 5.8 mph - N/A   Scattered Clouds
5:56 PM 46.9 °F - 34.0 °F 61% 30.28 in 10.0 mi SSE 4.6 mph - N/A   Partly Cloudy
6:56 PM 43.9 °F - 34.0 °F 68% 30.27 in 10.0 mi Calm Calm - N/A   Clear
7:56 PM 39.9 °F - 34.9 °F 82% 30.27 in 10.0 mi Calm Calm - N/A   Clear
10:56 PM 34.0 °F - 32.9 °F 96% 30.29 in 4.0 mi Calm Calm - N/A   Clear
11:56 PM 32.9 °F - 32.0 °F 96% 30.29 in 5.0 mi Calm Calm - N/A   Clear